Torna al catalogo

STARLINK-36750

AttivoComunicazioniSSO
NORAD 67695·PAYLOAD·🇺🇸 United States

Lanciato Feb 7, 2026 da Vandenberg Space Force Base

Loading…

Prossimi Passaggi (prossime 24 ore)

TLE

AggiornatoSource: CelesTrak SupGP

Epoca: Sep 15, 2026, 03:15 UTC

1 67695C 26025C   26258.13590278 -.00029207  00000+0 -90655-3 0  2583
2 67695  97.2853   8.1013 0001001  99.7808 236.4758 15.33458304    17

Traccia STARLINK-36750 in tempo reale con AllMySat

Download on the App Store